KINEIS-3A

Last updated on Sat Sep 05 2026 00:02:54 GMT+0000 (Coordinated Universal Time)

1 61223U 24172D 26246.73151071 .00000987 00000+0 16401-3 0 9993 2 61223 98.0405 335.8748 0002134 160.9736 199.1551 14.72299648104336
UTC large
Height (km)
Speed (km/s)
/
Latitude / Longitude
Inclination (degrees)
Orbital Period (minutes)
Azimuth
Elevation
Range (km)
Doppler Factor

Next 0 passes for location: London (51.5072 / 0.1276)

No passes found over London.
KINEIS-3A